User: anonymous   Login
Location: Gisborne
(38.6530°S, 178.0040°E)
Time: 06:46:14
(UTC+13:00)
Language:

Cosmos 2208 Rocket - Orbit

View from above orbital plane
View from above orbital plane
View from above satellite
View from above satellite

Ground track
Ground track

The orbit data is extracted from the following two-line orbital elements,

1 22081U 92053B   19321.41160098  .00000032  00000-0  20792-4 0  9996
2 22081  74.0438 263.6081 0035614  14.5386 345.6781 14.33459234425398
Epoch (UTC): 17 November 2019 09:52:42
Eccentricity: 0.0035614
inclination: 74.0438°
perigee height: 755 km
apogee height: 805 km
right ascension of ascending node: 263.6081°
argument of perigee: 14.5386°
revolutions per day: 14.33459234
mean anomaly at epoch: 345.6781°
orbit number at epoch: 42539

The dashed part of the orbit path shows where the satellite is in the earth's shadow,  

DLR